Location: Fort Worth, Tx
(32.7431°N, 97.3695°W)
Time: 10:52:46
(UTC-04:00)

A-11 Canister half - Pass Details

Date: 16 August 2024
Orbit: 1524 x 1684 km, 47.3° (Epoch: 13 September)

Event Time Altitude Azimuth Distance (km) Brightness Sun altitude
Rises 01:44:08 0° 267° (W) 4,897 11.8 -42.2°
Reaches altitude 10° 01:47:33 10° 274° (W) 3,924 11.3 -42.4°
Maximum altitude 01:56:59 42° 343° (NNW) 2,260 10.0 -42.9°
Drops below altitude 10° 02:06:28 10° 52° (NE) 3,939 11.4 -43.2°
Sets 02:09:56 0° 59° (ENE) 4,917 11.9 -43.3°
